{"data":{"norad_id":53263,"epoch":"2026-09-20T01:34:24.989664Z","epoch_age_seconds":112822,"freshness":"FRESH","line1":"1 53263U 22086X   26263.06556701  .00001965  00000+0  69305-4 0  9993","line2":"2 53263  53.1621  27.4134 0001187  83.7805 276.3332 15.34384970230609","mean_motion":15.3438497,"eccentricity":0.0001187,"inclination_deg":53.1621,"raan_deg":27.4134,"arg_perigee_deg":83.7805,"mean_anomaly_deg":276.3332,"bstar":6.9305e-5,"rev_number":23060,"period_min":93.848677362892,"perigee_km":461.93589986003,"apogee_km":463.55992593835,"semimajor_km":6840.8849128992,"source":"CELESTRAK","updated_at":"2026-09-20T09:00:40.216451Z"}}